Location: Br�h�mont
(47.2950°N, 0.3592°E)
Time: 14:45:06
(UTC+00:00)

Daily predictions for brighter satellites

Satellite Brightness Start Highest point End
(mag) Time Altitude Azimuth Time Altitude Azimuth Time Altitude Azimuth
SL-8 Rocket 4.4 17:19:56 10° SSW 17:26:15 76° W 17:32:35 10° N
Cosmos 1821 Rocket 4.3 17:21:38 10° SSE 17:27:41 46° E 17:33:42 10° NNE
Cosmos 2218 Rocket 4.2 17:22:23 10° S 17:28:40 85° W 17:35:05 10° N
USA 267 3.7 17:22:48 10° SE 17:29:20 69° SW 17:35:52 10° NW
Tiangong 3.5 17:30:07 10° S 17:31:39 13° SSE 17:33:10 10° SE
CORIOLIS 4.3 17:26:28 10° SSE 17:31:49 86° WSW 17:37:12 10° NNW
SKYMED 2 4.4 17:28:25 10° NNE 17:32:18 31° E 17:36:08 10° SSE
Gbstr 26 Del rocket 4.4 17:27:10 10° WNW 17:34:03 84° NNE 17:42:02 10° ESE
CENTAUR R/B 4.3 17:31:12 10° WNW 17:36:40 25° NNW 17:42:56 10° NE
PSLV R/B 4.0 17:33:20 10° SSE 17:37:23 85° WSW 17:41:23 10° NNW
SL-19 R/B 4.4 17:35:09 10° NNE 17:40:49 57° ESE 17:46:17 10° S
YAOGAN 1 3.8 17:38:22 10° ESE 17:41:42 22° ENE 17:45:04 10° NNE
Cosmos 405 Rocket 3.2 17:39:07 10° N 17:42:52 39° ENE 17:46:39 10° SE
Cosmos 1455 Rocket 3.7 17:38:59 10° SSE 17:43:00 35° E 17:47:03 10° NNE
MOS 1-B 4.4 17:38:32 10° SSE 17:44:20 87° ENE 17:50:09 10° NNW
Cosmos 724 4.4 17:39:34 10° NNW 17:45:28 57° NE 17:51:13 10° SE
H-2A R/B 3.7 17:45:03 10° ENE 17:47:01 13° E 17:48:58 10° ESE
CZ-4B R/B 3.3 17:41:36 10° SSE 17:47:13 71° ENE 17:52:52 10° N
Cosmos 2150 Rocket 4.2 17:42:07 10° SSW 17:47:33 83° WNW 17:52:58 10° NNE
PAYLOAD B 4.4 17:42:22 10° SSE 17:47:53 84° WSW 17:53:30 10° NNW
Cosmos 1758 4.0 17:46:16 10° SSW 17:50:12 59° WNW 17:54:08 10° N
SL-08 RB Rocket 4.4 17:47:23 10° SE 17:51:25 32° ENE 17:55:30 10° N
Okean O Rocket 1.6 17:47:35 10° SSE 17:51:50 58° ENE 17:56:07 10° N
Cosmos 1328 4.4 17:49:26 10° N 17:53:09 34° ENE 17:56:51 10° SE
H-2A R/B 3.2 17:49:46 10° SE 17:53:40 34° ENE 17:57:27 10° N
Cosmos 2098 4.4 17:51:57 10° SSW 17:54:54 74° W 17:58:13 10° N
Cosmos 1544 Rocket 4.4 17:53:01 10° SSE 17:56:52 29° E 18:00:44 10° NNE
Cosmos 1953 2.3 17:53:05 10° S 17:57:06 68° E 18:01:09 10° NNE
CZ-4C R/B 3.5 17:55:06 10° NNE 17:58:16 35° E 18:01:21 10° SSE
Meteor 1-21 Rocket 4.3 17:52:50 10° N 17:58:44 83° E 18:04:39 10° SSE
Cosmos 2369 3.9 17:53:37 10° SSW 17:59:16 77° WNW 18:05:00 10° NNE
Cosmos 2227 4.4 17:53:37 10° NNW 17:59:19 56° ENE 18:04:57 10° SE
Cosmos 1174 3.9 17:57:21 10° SW 18:00:29 51° NW 18:03:26 10° NNE
Cosmos 2263 Rocket 2.1 17:56:42 10° NNW 18:02:17 71° ENE 18:07:50 10° SE
ARGOS 3.2 17:57:03 10° SSE 18:02:20 60° ENE 18:07:42 10° N
Cosmos 1980 Rocket 2.2 17:58:02 10° SSW 18:03:43 90° NW 18:09:27 10° NNE
Cosmos 2123 Rocket 4.1 17:57:46 10° N 18:03:58 53° ENE 18:10:06 10° SSE
OPS 6432 4.2 18:01:52 10° NW 18:04:51 90° N 18:08:23 10° SE
CZ-2D R/B 3.9 18:02:07 10° S 18:05:55 59° W 18:09:46 10° NNW
H-2A R/B 2.3 18:01:42 10° SSE 18:07:04 82° WSW 18:12:34 10° NNW
CZ-4 R/B 4.4 18:03:02 10° SSE 18:07:08 67° ENE 18:11:15 10° N
CZ-4 R/B 1.9 18:04:11 10° SE 18:07:51 36° ENE 18:11:37 10° N
Okean-O 3.7 18:05:16 14° ESE 18:08:00 24° ENE 18:11:33 10° N
Okean 1-7 Rocket 3.8 18:05:20 10° N 18:09:37 48° ENE 18:13:54 10° SSE
Cosmos 389 Rocket 4.0 18:14:21 10° SW 18:17:32 37° WNW 18:20:45 10° N
Iridium 4 Rocket 3.2 18:13:47 10° N 18:18:15 60° E 18:23:04 10° SSE
Cosmos 1892 4.3 18:16:58 10° NNE 18:18:55 18° NE 18:18:55 18° NE
Cosmos 1602 Rocket 4.3 18:16:14 10° N 18:20:06 30° ENE 18:22:15 20° ESE
COSMO-SKYMED 1 2.6 18:16:09 10° NNE 18:20:32 87° WNW 18:24:52 10° SSW
Cosmos 1697 Rocket 4.0 18:15:29 10° WSW 18:20:46 40° NW 18:26:05 10° NNE
CZ-2C R/B 2.7 18:15:59 10° NNE 18:21:39 77° ESE 18:27:10 10° S
Cosmos 1908 4.2 18:21:35 10° SSW 18:25:22 49° WNW 18:29:09 10° N
CSL-04 Rocket 4.4 18:22:16 17° ESE 18:25:44 33° ENE 18:30:40 10° N
Landsat 5 3.6 18:21:36 10° NNE 18:25:59 84° WNW 18:30:27 10° SSW
X-37B 0.9 18:25:26 10° W 18:28:34 57° S 18:29:33 37° ESE
Cosmos 1892 Rocket 4.4 18:26:18 10° NNW 18:30:40 53° W 18:34:58 10° S
Cosmos 1269 Rocket 4.2 18:29:21 10° NNW 18:34:39 75° WSW 18:39:54 10° SSE
NOSS 2-3 (E) 4.0 18:32:34 10° S 18:36:15 36° ESE 18:37:01 33° E
Cosmos 1844 Rocket 3.4 18:31:20 10° NNW 18:36:22 33° NE 18:38:02 28° E
USA 215 4.0 18:31:33 13° NE 18:37:05 45° NNW 18:43:14 10° W
USA 229 DEB 4.2 18:35:07 10° S 18:40:32 31° ESE 18:42:06 28° E
USA 229 4.2 18:35:14 10° S 18:40:38 30° ESE 18:42:08 28° E
Feng Yun 1-1 Rocket 4.3 18:35:50 10° SSE 18:41:23 83° WSW 18:47:07 10° NNW
Cosmos 2278 4.1 18:35:51 10° SW 18:41:28 64° WNW 18:47:10 10° NNE
IRAS Rocket 4.1 18:38:45 10° NNE 18:44:21 78° ESE 18:49:52 10° SSW
Cosmos 2278 Rocket 4.2 18:46:54 10° N 18:48:58 12° NNE 18:49:28 12° NE
Cosmos 1758 Rocket 4.1 18:44:56 10° N 18:48:34 37° ENE 18:48:34 37° ENE
NOSS 8 (E) 4.3 18:47:26 10° SSW 18:50:35 61° SSE 18:50:35 61° SSE
Cosmos 371 Rocket 3.2 18:46:38 10° SSW 18:51:30 82° ESE 18:56:24 10° NNE
Cosmos 2251 Rocket 3.7 18:46:25 10° NNW 18:51:30 47° ENE 18:52:48 39° E
Cosmos 1605 Rocket 3.9 18:47:19 10° S 18:53:30 70° E 18:59:50 10° NNE
IRS-1C Rocket 4.0 18:48:25 10° SSE 18:53:40 77° ENE 18:58:57 10° NNW
Lacrosse 4 Rocket 1.6 18:49:37 10° NNW 18:53:50 53° NE 18:54:19 50° E
SL-16 R/B 2.1 18:50:35 10° SSW 18:56:12 69° ESE 19:01:52 10° NNE
Cosmos 1626 Rocket 3.5 18:52:27 10° N 18:56:48 82° W 19:01:06 10° S
CZ-2C R/B 3.5 19:01:02 10° SSW 19:01:12 10° S 19:01:12 10° S
Cosmos 1447 Rocket 4.4 18:56:02 10° N 19:02:10 66° E 19:07:12 16° SSE
NOSS 3-1 (A) 3.6 18:57:53 10° S 19:02:24 39° SE 19:02:24 39° SE
Cosmos 1300 3.5 19:01:00 10° SSW 19:04:43 52° WNW 19:08:27 10° N
ATLAS 3B R/B 4.1 19:01:37 10° W 19:07:28 31° NNW 19:13:36 10° NNE
Tiangong 3.2 19:05:08 10° SW 19:06:42 21° SSW 19:06:42 21° SSW
Cosmos 407 Rocket 4.4 19:03:14 10° N 19:07:25 32° NE 19:07:25 32° NE
DMSP B5D1-3 4.4 19:03:14 10° NNE 19:08:25 90° E 19:13:34 10° SSW
Cosmos 2322 Rocket 2.0 19:05:45 10° SSW 19:11:18 69° ESE 19:14:14 29° NE
ATLAS 5 CENTAUR R/B 2.9 19:07:47 10° WSW 19:11:27 35° NW 19:13:58 19° NNE
Meteor 2-10 Rocket 3.5 19:07:13 10° S 19:12:50 80° E 19:18:16 10° NNE
HJ-1C 4.5 19:12:34 34° SW 19:13:25 43° W 19:16:33 10° NNW
SL-8 R/B 3.5 19:08:58 10° WSW 19:13:46 86° SSE 19:14:17 71° E
Cosmos 1844 3.8 19:10:11 10° NNW 19:15:52 53° ENE 19:16:17 52° ENE
YAOGAN 1 3.7 19:13:27 10° S 19:17:34 42° W 19:21:42 10° NNW
Cosmos 1140 Rocket 4.4 19:15:19 10° N 19:19:00 34° NNE 19:19:00 34° NNE
Cosmos 1408 4.4 19:16:45 10° N 19:18:11 22° N 19:18:11 22° N
H-2A R/B 2.3 19:19:18 10° N 19:23:23 64° WNW 19:27:29 10° SSW
NOSS 2-3 (D) 3.6 19:19:22 10° SW 19:22:51 65° SSW 19:22:51 65° SSW
Cosmos 2360 Rocket 3.0 19:18:20 10° S 19:21:41 35° SSE 19:21:41 35° SSE
Orbus 7S? 3.8 19:20:25 10° NW 19:28:44 83° NE 19:28:54 81° ENE
NOSS 3-1 (C) 3.2 19:23:59 10° SW 19:29:17 82° NW 19:31:34 40° NE
CENTAUR R/B 4.3 19:23:59 10° NW 19:30:02 26° NNE 19:32:46 22° NE
Cosmos 2344 4.2 19:22:05 10° NW 19:31:12 89° NE 19:38:08 31° SE
NOSS 2-3 (C) 4.0 19:32:05 10° SW 19:35:24 56° WSW 19:35:24 56° WSW
In-Cosmos 22 Rocket 4.5 19:35:14 10° NNW 19:40:29 60° W 19:42:41 34° SSW
CZ-4 R/B 3.8 19:39:50 10° SW 19:42:57 22° W 19:46:08 10° NW
Okean-O 3.8 19:42:51 31° SW 19:44:15 41° W 19:48:28 10° NNW
Cosmos 1932 4.3 19:45:02 10° NW 19:51:17 88° NE 19:51:17 88° NE
Resurs 01 Rocket 4.3 20:00:29 10° N 20:00:29 10° N 20:00:34 10° N
USA 215 4.1 20:18:54 38° NNE 20:19:18 38° N 20:25:14 10° WNW
Cosmos 1844 Rocket 3.6 20:15:07 10° NW 20:19:43 43° W 20:19:43 43° W
USA 229 DEB 4.1 20:24:36 10° SW 20:29:37 53° W 20:29:37 53° W
USA 229 4.2 20:24:42 10° SW 20:29:39 52° W 20:29:39 52° W
Lacrosse 4 Rocket 4.2 20:29:02 10° WNW 20:30:38 17° W 20:30:38 17° W
Cosmos 2278 Rocket 4.1 20:29:12 10° NNW 20:31:18 22° N 20:31:18 22° N
SL-16 R/B 4.2 20:36:13 10° W 20:40:51 25° NW 20:43:48 17° N
Cosmos 2322 Rocket 4.1 20:51:20 10° W 20:55:52 25° NW 20:56:08 25° NW
CENTAUR R/B 4.1 21:15:01 10° NW 21:19:55 38° N 21:19:55 38° N
